{"data":{"norad_id":64548,"intl_designator":"2025-135W","name":"GHGSAT-C13","alt_names":[],"object_type":"PAYLOAD","status":"ACTIVE","operator":null,"country":"CA","launch_date":"2025-06-23","launch_site_code":"AFWTR","launch_vehicle":null,"mission":null,"orbit_class":"UNKNOWN","rcs_meters":null,"size_class":null,"mass_kg":null,"dimensions":null,"purposes":[],"wikipedia_slug":null,"has_3d_model":false,"image_url":null,"decayed_at":null,"tle_current":{"epoch":"2026-09-21T20:35:26.592288Z","epoch_age_seconds":64245,"freshness":"FRESH","line1":"1 64548U 25135W   26264.85794667  .00004054  00000+0  18050-3 0  9994","line2":"2 64548  97.4854  19.6447 0002325 109.4892 250.6596 15.22028920 69551","mean_motion":15.2202892,"eccentricity":0.0002325,"inclination_deg":97.4854,"raan_deg":19.6447,"arg_perigee_deg":109.4892,"mean_anomaly_deg":250.6596,"bstar":0.0001805,"rev_number":6955,"period_min":94.610554443341,"perigee_km":498.12242300181,"apogee_km":501.32062721598,"semimajor_km":6877.8585251089,"source":"CELESTRAK","updated_at":"2026-09-22T09:00:29.843512Z"}}}